Location: *
(60.1759°S, 155.0663°W)
Time: 21:55:48
(UTC+00:00)

Meteor 1-19 Rocket - Pass Details

Date: 17 September 2019
Orbit: 818 x 916 km, 81.2° (Epoch: 14 October)

Event Time Altitude Azimuth Distance (km) Brightness Sun altitude
Rises 14:54:11 0° 198° (SSW) 3,425 7.4 -11.8°
Reaches altitude 10° 14:56:38 10° 200° (SSW) 2,476 6.6 -11.5°
Maximum altitude 15:02:10 66° 280° (W) 914 4.1 -10.9°
Drops below altitude 10° 15:07:37 10° 1° (N) 2,433 6.5 -10.2°
Sets 15:10:00 0° 3° (N) 3,361 7.2 -9.9°
